Regional Weather Roundup
Issued by NWS Green Bay, WI

Home | Current Version | Previous Version | Graphics & Text | Print | Product List | Glossary Off
Versions: 1 2 3 4 5 6 7 8 9 10 11 12 13 14 15 16 17 18 19 20 21 22 23 24 25 26 27 28 29 30 31 32 33 34 35 36 37 38 39 40 41 42 43 44 45 46 47 48 49 50

000
ASUS43 KGRB 291911
RWRGRB

NORTH-CENTRAL AND NORTHEAST WISCONSIN REGIONAL WEATHER ROUNDUP
NATIONAL WEATHER SERVICE GREEN BAY WI
200 PM CDT SAT APR 29 2017

WIZ005-009-010>012-018-019-292000-
NORTH CENTRAL WISCONSIN

CITY           SKY/WX    TMP DP  RH WIND       PRES   REMARKS
IRONWOOD       SUNNY     43  25  49 N14       30.34R
MANITOWISH WTR MOSUNNY   47  22  37 NE8       30.31R
ARBOR VITAE    CLOUDY    49  23  36 NE9       30.30R
EAGLE RIVER    MOSUNNY   47  19  32 E3        30.30R
LAND O LAKES   CLOUDY    47  19  32 SE9       30.32R
RHINELANDER    CLOUDY    50  25  37 E9        30.30R
PHILLIPS       MOSUNNY   48  24  38 N10G17    30.28R
ANTIGO         MOSUNNY   49  29  46 NE12      30.28R
TOMAHAWK       MOSUNNY   48  23  36 NE7       30.30R
MERRILL        MOSUNNY   50  26  39 E9        30.29R
$$

WIZ013-073-292000-
NORTHEAST WISCONSIN

CITY           SKY/WX    TMP DP  RH WIND       PRES   REMARKS
IRON MOUNTAIN  CLOUDY    50  19  29 VRB7      30.29R
MARINETTE      CLOUDY    45  30  55 E9        30.33R
OCONTO         CLOUDY    44  28  53 E9        30.31R
$$

WIZ017-030-035>037-045-292000-
CENTRAL WISCONSIN

CITY           SKY/WX    TMP DP  RH WIND       PRES   REMARKS
MEDFORD        PTSUNNY   48  26  41 NE7       30.27R
WAUSAU         MOSUNNY   50  26  39 NE10      30.26R
MOSINEE        CLOUDY    48  28  46 NE9       30.28R
MARSHFIELD     CLOUDY    49  27  42 E16       30.26R
WISC RAPIDS    CLOUDY    49  27  42 E14       30.28R
STEVENS POINT  CLOUDY    47  25  42 E12       30.28R
WAUPACA        CLOUDY    49  30  47 NE8       30.30R
SHAWANO        CLOUDY    50  31  47 E13       30.30R
CLINTONVILLE   CLOUDY    46  28  49 NE8G17    30.30R
WAUTOMA        CLOUDY    47  29  49 NE16      30.27R
$$

WIZ038-039-048-051-292000-
FOX VALLEY

CITY           SKY/WX    TMP DP  RH WIND       PRES   REMARKS
NWS GREEN BAY  CLOUDY    46  32  58 NE18      30.31R
APPLETON       CLOUDY    45  25  45 NE12G23   30.29R
OSHKOSH        CLOUDY    45  30  55 NE13      30.28R
FOND DU LAC    CLOUDY    46  31  55 E13       30.27R
$$

WIZ022-050-052-292000-
EAST CENTRAL WISCONSIN

CITY           SKY/WX    TMP DP  RH WIND       PRES   REMARKS
EPHRAIM        FAIR      44  28  54 N10       30.30R
WASHINGTON ISL MOCLDY    47  26  45 NE9       30.30S
STURGEON BAY   CLOUDY    44  31  60 NE8       30.32R
MANITOWOC      CLOUDY    41  29  62 NE13G23   30.31R
SHEBOYGAN      CLOUDY    40  35  83 NE22      30.29R
$$

LMZ563-521-522-541>543-292000-
LAKESHORE

STATION/POSITION TIME  TEMP    WIND        PRES    VSBY  WAVE
                       AIR SEA DIR/SP/G                  HT/PER
                 (UTC) (F)     (DEG/KT/KT) (MB)    (MI)  (FT/S)
SHEBOYGAN LKSHOR 1900   38      40/ 23/ 24 1026.1R
KEWAUNEE LKSHORE 1848   40      60/  8/ 12 1026.3R
NORTHPORT PIER   1840   40     130/  5/  7 1026.4S
N MID LAKE BUOY  1850   38 37   CALM  /  2 1027.8S         1/ 3
CHAMBERS ISLAND  1840   43      40/ 11/ 18 1026.1S
MENOMINEE LKSHOR 1848   41      70/ 11/ 14 1025.7R
$$




USA.gov is the U.S. government's official web portal to all federal, state and local government web resources and services.